Regional Weather Roundup
Issued by NWS Lake Charles, LA

Home | Current Version | Previous Version | Text Only | Print | Product List | Glossary On
Versions: 1 2 3 4 5 6 7 8 9 10 11 12 13 14 15 16 17 18 19 20 21 22 23 24 25 26 27 28 29 30 31 32 33 34 35 36 37 38 39 40 41 42 43 44 45 46 47 48 49 50
000
ASUS44 KLCH 181210
RWRLCH
RWRLCH
REGIONAL WEATHER ROUNDUP
NATIONAL WEATHER SERVICE LAKE CHARLES LA
600 AM CST THU DEC 18 2014

Note: "fair" indicates few or no clouds below 12,000 feet with no
significant weather and/or obstructions to visibility.


ACROSS SOUTHEAST TEXAS

CITY           SKY/WX    TMP DP  RH WIND       PRES   REMARKS
BEAUMONT       MOCLDY    60  56  86 E7        30.07R
BEAUMONT CITY  CLOUDY    59  56  92 E3        30.07S
ORANGE         PTSUNNY   57  55  92 E5        30.09R
JASPER         LGT RAIN  53  47  80 CALM      30.11S
$$

ACROSS CENTRAL LOUISIANA

CITY           SKY/WX    TMP DP  RH WIND       PRES   REMARKS
LEESVILLE      CLOUDY    52  45  76 VRB3      30.10S
FULLERTON      CLOUDY    53  44  71 CALM      30.09S
ALEXANDRIA INT CLOUDY    51  43  74 E7        30.11F
ESLER FIELD    CLOUDY    51  43  74 CALM      30.13F
DERIDDER       CLOUDY    52  45  76 CALM      30.12R
OAKDALE        CLOUDY    50  46  84 CALM      30.12R
OPELOUSAS        N/A     49  42  75 E6        30.12S
$$

ACROSS SOUTHWEST AND SOUTH CENTRAL LOUISIANA

CITY           SKY/WX    TMP DP  RH WIND       PRES   REMARKS
SULPHUR        CLOUDY    56  53  89 E6        30.09S
LAKE CHARLES   CLOUDY    54  50  86 E7        30.08S
CHENNAULT INT  CLOUDY    52  48  87 E6        30.09
CAMERON PHI    CLOUDY    61  57  88 SE12G20   30.11R
DEQUINCY       CLOUDY    51  49  92 CALM      30.10R
JENNINGS       CLOUDY    53  46  77 E10       30.10S
LAFAYETTE      MOCLDY    51  43  74 CALM      30.12S
NEW IBERIA     CLOUDY    53  45  74 E6        30.12S
ABBEVILLE      PTSUNNY   52  46  80 E5        30.11S
PATTERSON      MOCLDY    54  45  71 E7        30.13S
SALT POINT       N/A     56  49  77 E6        30.11S
$$

SELECTED SITES ACROSS THE REGION

CITY           SKY/WX    TMP DP  RH WIND       PRES   REMARKS
HOUSTON BUSH   LGT RAIN  59  59 100 CALM      30.06R
HOUSTON HOBBY  LGT RAIN  64  63  96 CALM      30.04R FOG
GALVESTON      MOCLDY    65  65 100 SE7       30.05R
COLLEGE STAT   CLOUDY    50  49  96 N8        30.09R FOG
CONROE         CLOUDY    55  53  93 N5        30.08R
HUNTSVILLE     CLOUDY    51  49  92 CALM      30.09R
LUFKIN         CLOUDY    53  46  77 NE6       30.11R
SHREVEPORT     CLOUDY    45  42  89 NE7       30.16R
MONROE         LGT RAIN  45  41  86 NE6       30.18R
NATCHEZ MS     CLOUDY    48  41  76 E3        30.16F
BATON ROUGE    PTCLDY    47  43  86 E8        30.14F
N.O. INTL ARPT MOCLDY    52  47  83 E5        30.16S
SLIDELL        MOCLDY    43  40  89 CALM      30.16F
$$

MARINE REPORTS

STATION/POSITION TIME  TEMP    WIND        PRES    VSBY  WAVE
                       AIR SEA DIR/SP/G                  HT/PER
                 (UTC) (F)     (DEG/KT/KT) (MB)    (MI)  (FT/S)
BUOY 30 S HIGH I 1200   66 65  130/  8/  8 1017.0R         3/ 5
SEA RIM ST PARK  1200   62      90/  8/ 10 1018.6R
PORT ARTHUR      1200      62   90/  3/  5 1018.3R
SABINE PASS N    1200   62 62  110/  9/ 11 1017.9R
TEXAS POINT      NOT AVBL
CALCASIEU PASS   1200   60 60  130/ 11/ 18   N/A
LK CHARLES BEACH 1200   53 63              1018.8F
MARSH ISLAND     NOT AVBL
FRESH WATER LOCK 1200   57 61   90/  9/ 12 1019.1F
AMERADA PASS     1200   53 51  110/  8/ 12 1019.8S
$$


USA.gov is the U.S. government's official web portal to all federal, state and local government web resources and services.